[[{"header":{"parameterUnit":"m.s-1","parameterCategory":1,"la1":30.2991,"la2":30.254,"lo1":-89.0895,"lo2":-89.0444,"dy":0.0017,"dx":0.0017,"nx":28,"ny":28,"refTime":"2024-03-27T09:00:00:Z","depth":0,"parameterNumber":2,"parameterNumberName":"U-component_of_WINDS"},"data":[0,0,0,0,0,0,0,0,0,0,0,0,0,0,0,0,0,0,0,0,0,0,0,0,0,0,0,0,0,0,0,0,0,0,0,0,0,0,0,0,0,0,0,0,0,0,0,0,0,0,0,0,0,0,0,0,0,0,1.0833,1.0833,0,1.0812,1.0812,1.0812,1.0787,1.0786,1.0786,1.0785,1.0763,1.0763,1.0762,0,0,0,0,0,0,0,0,0,0,0,0,0,1.0851,1.085,1.0833,1.0833,1.0833,1.0812,1.0812,1.0812,1.0787,1.0786,1.0786,1.0785,1.0763,1.0763,1.0762,0,0,0,0,0,0,0,0,0,0,0,0,0,1.0838,1.085,1.0833,1.0818,1.0816,1.0813,1.0812,1.0812,1.0787,1.0786,1.0786,1.0785,1.0763,1.0763,1.0762,1.0772,0,0,1.0761,1.0761,0,0,0,0,0,0,0,0,1.0839,1.0837,1.082,1.0819,1.0817,1.0802,1.081,1.0798,1.0787,1.0798,1.0785,1.0785,1.0776,1.0775,1.0772,1.0771,1.077,1.0761,1.0761,1.0761,1.0761,0,0,0,0,0,0,0,1.0839,1.0838,1.0825,1.082,1.0818,1.0812,1.0809,1.0808,1.0791,1.0797,1.0795,1.0793,1.0775,1.0772,1.0771,1.077,1.0761,1.0761,1.0761,1.0761,1.0776,1.0777,0,0,0,0,0,0,1.0843,1.0839,1.0826,1.0824,1.0827,1.0812,1.0809,1.0807,1.079,1.0787,1.0793,1.0792,1.0773,1.0772,1.077,1.0781,1.0761,1.0761,1.076,1.0775,1.0776,1.0777,0,0,0,0,0,0,1.0843,1.0842,1.0826,1.0831,1.0829,1.0812,1.081,1.0807,1.0804,1.0788,1.0785,1.0794,1.0773,1.0771,1.0772,1.0779,1.076,1.076,1.0775,1.0776,1.0777,1.0801,0,0,0,0,0,0,1.0844,1.0842,1.0846,1.0831,1.0828,1.0828,1.0811,1.0807,1.0804,1.0801,1.0787,1.0785,1.0772,1.0773,1.0772,1.0779,1.076,1.0774,1.0775,1.0776,1.0799,1.0803,1.0805,0,0,0,0,0,1.0845,1.0853,1.0846,1.0844,1.0832,1.0829,1.0827,1.0813,1.0805,1.0808,1.0798,1.0785,1.0779,1.0773,1.0772,1.0779,1.0773,1.0775,1.0776,1.0798,1.0802,1.0805,0,0,0,0,0,0,1.0868,1.0851,1.0843,1.0847,1.084,1.0825,1.0828,1.0818,1.0812,1.081,1.0793,1.079,1.0793,1.0786,1.078,1.0787,1.0774,1.0776,1.0792,1.0795,1.0798,1.0799,1.076,0,0,0,0,0,1.0874,1.0872,1.0857,1.0862,1.0859,1.0845,1.0843,1.0833,1.0824,1.0821,1.0811,1.0803,1.0799,1.0797,1.0793,1.0799,1.0795,1.0803,1.0806,1.0809,1.0809,1.0812,1.0816,1.0781,1.0781,1.0781,0,0,1.0885,1.0876,1.0876,1.0867,1.086,1.0859,1.0842,1.0842,1.084,1.0821,1.0821,1.0814,1.0804,1.0807,1.0808,1.0801,1.0819,1.081,1.0813,1.0812,1.0814,1.0817,1.082,1.0782,1.0782,1.0782,0,0,1.0905,1.0898,1.0901,1.0895,1.0886,1.0876,1.0877,1.0864,1.0859,1.0859,1.0844,1.0843,1.0837,1.0831,1.0827,1.0846,1.0835,1.0846,1.0861,1.0864,1.0866,1.0869,1.0875,1.0878,1.0847,1.0847,1.0847,0,1.092,1.0918,1.0904,1.0905,1.0902,1.0885,1.0888,1.0883,1.0872,1.087,1.0863,1.0856,1.0848,1.085,1.0855,1.0853,1.0853,1.0846,1.0867,1.0869,1.0871,1.0877,1.088,1.0848,1.0848,1.0848,1.0848,0,1.0937,1.0936,1.094,1.0931,1.0928,1.093,1.0917,1.0916,1.0907,1.0898,1.0899,1.0889,1.0883,1.0883,1.0874,1.0884,1.088,1.0871,1.0857,1.0876,1.0881,1.0884,1.085,1.085,1.0849,1.0849,0,0,1.0969,1.0954,1.0955,1.0951,1.094,1.0939,1.0941,1.0935,1.0934,1.0928,1.0929,1.0925,1.0917,1.0912,1.0902,1.0905,1.0921,1.0895,1.0895,1.09,1.0932,1.0939,1.0941,1.0914,1.0915,1.0915,1.0933,0,1.0987,1.0988,1.0977,1.0981,1.098,1.0965,1.0967,1.096,1.0953,1.0951,1.0942,1.094,1.0929,1.0926,1.0928,1.0919,1.0927,1.0918,1.0914,1.0914,1.0916,1.0944,1.0951,1.0968,1.0935,1.0935,1.0935,0,1.1006,1.1002,1.1007,1.0996,1.0995,1.0997,1.0991,1.099,1.0982,1.0977,1.0973,1.0962,1.0963,1.0951,1.0952,1.0946,1.0944,1.094,1.094,1.0938,1.0925,1.0942,1.0973,1.0975,1.0938,1.0938,1.0938,0,1.1028,1.1024,1.1026,1.1023,1.1011,1.1013,1.1008,1.1,1.0998,1.0993,1.0991,1.0987,1.0984,1.0981,1.0969,1.0962,1.0972,1.0959,1.0967,1.0967,1.0968,1.0968,1.0998,1.0969,1.0969,1.0969,1.0969,0,1.1048,1.1052,1.1036,1.1037,1.1041,1.1028,1.1032,1.1026,1.1019,1.1019,1.1006,1.1006,1.0991,1.099,1.0981,1.0983,1.0982,1.0977,1.0975,1.0978,1.0978,1.0975,1.0974,1.097,1.0969,1.0969,1.0969,0,1.1073,1.1063,1.1064,1.1053,1.1051,1.1054,1.1044,1.1045,1.1038,1.1038,1.1037,1.1025,1.1023,1.1011,1.1006,1.1,1.1005,1.1001,1.1008,1.1006,1.1014,1.1013,1.1042,1.1045,1.1015,1.1015,1.1016,0,1.1085,1.1088,1.1077,1.1077,1.1072,1.1071,1.1069,1.1057,1.1056,1.1048,1.105,1.1047,1.1044,1.1041,1.1032,1.1028,1.1023,1.1033,1.1022,1.1025,1.1022,1.1022,1.1022,1.1035,1.1036,1.1036,1.1036,0,1.1108,1.1104,1.1101,1.1098,1.1096,1.1092,1.1088,1.1088,1.1075,1.1074,1.1072,1.1069,1.1065,1.1062,1.1057,1.1052,1.1042,1.104,1.1042,1.1044,1.1048,1.1045,1.1013,1.1039,1.1039,1.1039,1.1039,1.1038,1.1127,1.1128,1.1121,1.112,1.1115,1.1112,1.1112,1.1105,1.1104,1.1099,1.1093,1.1092,1.1085,1.1077,1.1073,1.1072,1.1066,1.1069,1.1069,1.1069,1.1071,1.1049,1.1072,1.1071,1.1071,1.1071,1.1071,0,1.1148,1.1144,1.1142,1.1137,1.1136,1.1128,1.1123,1.1122,1.1122,1.1117,1.1114,1.1112,1.111,1.1101,1.1098,1.1099,1.1094,1.1098,1.1097,1.1096,1.1077,1.1075,1.1102,1.1102,1.1102,1.1102,1.1102,1.1102,1.116,1.1162,1.1157,1.1157,1.1152,1.1151,1.1149,1.1146,1.1142,1.1141,1.1139,1.1134,1.1127,1.1124,1.1121,1.1119,1.1118,1.1123,1.1119,1.11,1.1097,1.1095,1.1093,1.1123,1.1123,1.1138,1.1139,1.1139]},{"header":{"parameterUnit":"m.s-1","parameterCategory":1,"la1":30.2991,"la2":30.254,"lo1":-89.0895,"lo2":-89.0444,"dy":0.0017,"dx":0.0017,"nx":28,"ny":28,"refTime":"2024-03-27T09:00:00:Z","depth":0,"parameterNumber":3,"parameterNumberName":"V-component_of_WINDS"},"data":[0,0,0,0,0,0,0,0,0,0,0,0,0,0,0,0,0,0,0,0,0,0,0,0,0,0,0,0,0,0,0,0,0,0,0,0,0,0,0,0,0,0,0,0,0,0,0,0,0,0,0,0,0,0,0,0,0,0,-6.1971,-6.1972,0,-6.2099,-6.2101,-6.2102,-6.2029,-6.2026,-6.2022,-6.2019,-6.2146,-6.2152,-6.2159,0,0,0,0,0,0,0,0,0,0,0,0,0,-6.1659,-6.1665,-6.1971,-6.1972,-6.1974,-6.2099,-6.2101,-6.2103,-6.203,-6.2026,-6.2021,-6.2017,-6.2144,-6.2151,-6.2159,0,0,0,0,0,0,0,0,0,0,0,0,0,-6.1792,-6.1667,-6.197,-6.1953,-6.1953,-6.2099,-6.2101,-6.2103,-6.2031,-6.2025,-6.202,-6.2015,-6.2141,-6.2151,-6.2161,-6.233,0,0,-6.2191,-6.2196,0,0,0,0,0,0,0,0,-6.1784,-6.1803,-6.1954,-6.1954,-6.1954,-6.2043,-6.2037,-6.2179,-6.2032,-6.2001,-6.2019,-6.2012,-6.2116,-6.2127,-6.2163,-6.2336,-6.2341,-6.2192,-6.2198,-6.2203,-6.2205,0,0,0,0,0,0,0,-6.1775,-6.1797,-6.2021,-6.1956,-6.1956,-6.1938,-6.195,-6.2064,-6.2087,-6.2003,-6.1998,-6.2015,-6.2115,-6.2154,-6.2165,-6.2343,-6.2192,-6.2201,-6.2207,-6.2211,-6.2663,-6.2668,0,0,0,0,0,0,-6.1768,-6.179,-6.2017,-6.2025,-6.1855,-6.1948,-6.1962,-6.202,-6.2085,-6.209,-6.2019,-6.2011,-6.2139,-6.2154,-6.217,-6.2374,-6.2203,-6.2212,-6.2218,-6.2657,-6.2664,-6.2671,0,0,0,0,0,0,-6.1761,-6.1789,-6.2012,-6.1907,-6.1934,-6.1959,-6.2024,-6.2025,-6.2064,-6.2097,-6.21,-6.2055,-6.2135,-6.2155,-6.2291,-6.2377,-6.2217,-6.2226,-6.265,-6.2659,-6.2667,-6.2782,0,0,0,0,0,0,-6.1753,-6.1787,-6.1852,-6.1909,-6.1939,-6.2133,-6.2029,-6.2032,-6.2082,-6.2073,-6.2132,-6.2136,-6.2133,-6.2277,-6.2301,-6.2388,-6.2234,-6.2642,-6.2654,-6.2665,-6.2771,-6.2794,-6.2814,0,0,0,0,0,-6.1742,-6.1878,-6.1856,-6.1884,-6.2022,-6.2138,-6.2156,-6.215,-6.2089,-6.2155,-6.2177,-6.2135,-6.2364,-6.2291,-6.2318,-6.2409,-6.2637,-6.2651,-6.2664,-6.2761,-6.2789,-6.2813,0,0,0,0,0,0,-6.1829,-6.1885,-6.1861,-6.202,-6.2075,-6.2126,-6.2208,-6.218,-6.2252,-6.224,-6.2228,-6.2242,-6.2384,-6.241,-6.2328,-6.2577,-6.2491,-6.251,-6.2555,-6.2583,-6.2604,-6.2595,-6.2242,0,0,0,0,0,-6.1867,-6.1958,-6.2001,-6.2137,-6.2166,-6.2183,-6.2233,-6.2224,-6.228,-6.2303,-6.2334,-6.2389,-6.2473,-6.2529,-6.2608,-6.2774,-6.2786,-6.285,-6.2871,-6.2889,-6.2906,-6.2997,-6.3026,-6.2715,-6.2715,-6.2714,0,0,-6.1945,-6.1987,-6.2045,-6.2156,-6.2197,-6.2291,-6.2203,-6.2305,-6.2375,-6.2318,-6.2449,-6.2474,-6.2534,-6.2687,-6.2755,-6.2712,-6.2995,-6.2906,-6.2919,-6.2927,-6.3014,-6.3043,-6.3069,-6.2724,-6.2722,-6.2721,0,0,-6.2137,-6.2178,-6.2296,-6.2341,-6.2406,-6.2416,-6.2445,-6.2501,-6.2516,-6.2648,-6.2608,-6.2689,-6.2834,-6.288,-6.2922,-6.3133,-6.3098,-6.3159,-6.3271,-6.336,-6.3385,-6.3406,-6.3483,-6.351,-6.3176,-6.3176,-6.3177,0,-6.2226,-6.2367,-6.236,-6.2467,-6.2517,-6.2472,-6.2592,-6.2635,-6.2722,-6.2757,-6.2709,-6.2892,-6.2929,-6.3092,-6.3144,-6.3179,-6.3211,-6.3153,-6.3382,-6.3404,-6.3424,-6.3497,-6.3525,-6.3183,-6.3183,-6.3182,-6.3181,0,-6.2474,-6.2573,-6.2661,-6.2749,-6.2809,-6.2921,-6.2931,-6.2992,-6.2978,-6.2994,-6.3129,-6.3172,-6.3261,-6.3298,-6.3285,-6.346,-6.3432,-6.3383,-6.3296,-6.3461,-6.3529,-6.3557,-6.3194,-6.3191,-6.3189,-6.3187,0,0,-6.2723,-6.2808,-6.2841,-6.2881,-6.2951,-6.3026,-6.3137,-6.3225,-6.3279,-6.334,-6.3433,-6.3558,-6.3514,-6.3562,-6.3553,-6.3631,-6.3798,-6.3573,-6.3574,-6.3614,-6.3995,-6.4032,-6.4064,-6.3774,-6.378,-6.3784,-6.399,0,-6.2921,-6.3117,-6.3114,-6.3295,-6.3387,-6.3346,-6.3443,-6.3496,-6.3513,-6.3593,-6.3611,-6.3701,-6.3635,-6.3664,-6.3739,-6.3762,-6.3874,-6.3746,-6.386,-6.3864,-6.3848,-6.41,-6.4139,-6.4332,-6.4017,-6.4021,-6.4024,0,-6.3177,-6.325,-6.3441,-6.35,-6.3538,-6.3625,-6.3707,-6.3783,-6.3842,-6.385,-6.3905,-6.3884,-6.3996,-6.3906,-6.406,-6.3974,-6.402,-6.4038,-6.4045,-6.4056,-6.3955,-6.4119,-6.4393,-6.4422,-6.4066,-6.4063,-6.406,0,-6.3341,-6.3487,-6.3621,-6.3657,-6.3727,-6.379,-6.3822,-6.3876,-6.393,-6.4001,-6.4036,-6.4118,-6.4163,-6.4227,-6.4229,-6.4163,-6.4386,-6.4295,-6.4395,-6.4395,-6.4444,-6.4441,-6.4731,-6.4472,-6.4472,-6.4471,-6.4471,0,-6.3562,-6.3681,-6.3696,-6.3779,-6.3911,-6.3907,-6.4037,-6.4063,-6.4112,-6.4198,-6.4166,-6.4248,-6.4245,-6.4328,-6.4329,-6.4458,-6.4478,-6.4487,-6.4486,-6.4491,-6.449,-6.4521,-6.4508,-6.4479,-6.4477,-6.4476,-6.4475,0,-6.3768,-6.3783,-6.3927,-6.3983,-6.4,-6.4095,-6.4143,-6.4221,-6.4236,-6.4346,-6.4371,-6.4395,-6.449,-6.4499,-6.4609,-6.461,-6.4766,-6.475,-6.4747,-6.4745,-6.4845,-6.4836,-6.5165,-6.5209,-6.4921,-6.4924,-6.4926,0,-6.3909,-6.4,-6.4067,-6.4124,-6.416,-6.4251,-6.4307,-6.4306,-6.4365,-6.4441,-6.451,-6.4603,-6.4677,-6.4832,-6.4858,-6.4942,-6.4929,-6.5039,-6.4941,-6.4944,-6.4932,-6.4927,-6.4937,-6.5058,-6.5061,-6.5064,-6.5066,0,-6.4157,-6.4161,-6.4243,-6.433,-6.4398,-6.4465,-6.4527,-6.4575,-6.4582,-6.465,-6.4749,-6.4807,-6.4921,-6.5014,-6.5097,-6.5128,-6.5099,-6.5096,-6.5124,-6.513,-6.5125,-6.5131,-6.48,-6.5089,-6.5086,-6.5085,-6.5084,-6.5083,-6.4336,-6.4416,-6.4476,-6.4569,-6.4617,-6.4677,-6.4754,-6.478,-6.4863,-6.4958,-6.4952,-6.5061,-6.5118,-6.5228,-6.5266,-6.5351,-6.5313,-6.5353,-6.5364,-6.5374,-6.5385,-6.5111,-6.5365,-6.5365,-6.5364,-6.5364,-6.5363,0,-6.4584,-6.4621,-6.4707,-6.4798,-6.4872,-6.4839,-6.4907,-6.4971,-6.5068,-6.5125,-6.52,-6.5314,-6.5405,-6.5439,-6.5527,-6.5588,-6.5577,-6.5612,-6.5608,-6.5616,-6.5412,-6.538,-6.5619,-6.5619,-6.5619,-6.5619,-6.5619,-6.5619,-6.4721,-6.4855,-6.4867,-6.5024,-6.506,-6.5169,-6.5211,-6.5266,-6.5312,-6.5441,-6.5517,-6.554,-6.5588,-6.568,-6.5761,-6.5769,-6.5803,-6.5844,-6.5846,-6.5655,-6.563,-6.5605,-6.5575,-6.5851,-6.5851,-6.6042,-6.6044,-6.6045]}]]